Location: Bakhuizen
(52.8696°N, 5.4575°E)
Time: 09:19:00
(UTC+00:00)

DNEPR-1 R/B - Pass Details

Date: 11 May 2021
Orbit: 587 x 1334 km, 64.6° (Epoch: 15 June)

Event Time Altitude Azimuth Distance (km) Brightness Sun altitude
Exits shadow 22:34:44 27° 192° (SSW) 1,564 5.1 -17.8°
Maximum altitude 22:37:37 54° 127° (SE) 940 4.1 -17.9°
Drops below altitude 10° 22:42:22 10° 51° (NE) 2,154 6.7 -18.1°
Sets 22:44:33 0° 47° (NE) 2,998 7.5 -18.2°
